This demonstration page uses our WeatherBlox Daily Observations layout. Learn more.

Left ArrowRight Arrow

Hourly Observations for May 15, 2018

Temp ( °F °C ) Dew Point ( °F °C ) Humidity (%) Winds ( mph kmh ) Pressure ( in mb ) Visibility ( mi km ) Precip ( " mm )
12:15 am 00:15 Cloudy 59 15 58 14.5 97 97 ENE 5 7 29.97 1015 10 16 N/A
12:35 am 00:35 Cloudy 59 15 58 14.5 97 97 NE 5 7 29.97 1015 10 16 N/A
12:55 am 00:55 Cloudy 60 15.4 58 14.7 96 96 NNE 3 6 29.97 1015 10 16 N/A
1:15 am 01:15 Cloudy 59 15.2 58 14.7 97 97 N 3 6 30.00 1016 10 16 N/A
1:35 am 01:35 Cloudy 60 15.4 59 14.9 97 97 NNW 3 6 30.00 1016 10 16 N/A
1:55 am 01:55 Mostly Cloudy 59 15.1 58 14.6 97 97 N N/A 30.00 1016 10 16 N/A
2:15 am 02:15 Clear 58 14.5 57 14.1 97 97 N N/A 30.00 1016 10 16 N/A
2:35 am 02:35 Mostly Cloudy 57 14 57 13.8 99 99 N N/A 30.00 1016 10 16 N/A
2:55 am 02:55 Partly Cloudy 57 13.8 57 13.8 100 100 W 6 9 30.00 1016 7 11 N/A
3:15 am 03:15 Clear 56 13.4 56 13.4 100 100 W 3 6 30.00 1016 7 11 N/A
3:35 am 03:35 Clear 55 13 55 13 100 100 WNW 6 9 30.00 1016 10 16 N/A
3:55 am 03:55 Clear 54 12.1 54 12.1 100 100 WNW 6 9 30.00 1016 7 11 N/A
4:15 am 04:15 Clear 53 11.6 53 11.6 100 100 NW 5 7 30.00 1016 7 11 N/A
4:35 am 04:35 Clear 53 11.8 53 11.8 100 100 N N/A 30.00 1016 10 16 N/A
4:55 am 04:55 Clear 52 11.1 52 11.1 100 100 W 3 6 30.03 1017 7 11 N/A
5:15 am 05:15 Clear 53 11.6 53 11.6 100 100 W 3 6 30.03 1017 10 16 N/A
5:35 am 05:35 Clear 53 11.5 53 11.5 100 100 N N/A 30.06 1018 10 16 N/A
5:55 am 05:55 Clear 52 11.1 52 11.1 100 100 N N/A 30.06 1018 7 11 N/A
6:15 am 06:15 Clear with Mist and Fog 51 10.6 51 10.6 100 100 WNW 5 7 30.06 1018 5 8 N/A
6:35 am 06:35 Sunny 52 11.2 52 11.2 100 100 WNW 5 7 30.06 1018 10 16 N/A
6:55 am 06:55 Sunny 52 11.2 52 11.2 100 100 WNW 7 11 30.06 1018 10 16 N/A
7:15 am 07:15 Sunny 54 12 54 12 100 100 NW 7 11 30.06 1018 10 16 N/A
7:35 am 07:35 Sunny 55 12.9 55 12.5 97 97 NW 6 9 30.09 1019 10 16 N/A
7:55 am 07:55 Sunny 57 13.7 55 12.9 95 95 NW 5 7 30.06 1018 10 16 N/A
8:15 am 08:15 Sunny 58 14.7 56 13.3 91 91 NW 5 7 30.06 1018 10 16 N/A
8:35 am 08:35 Sunny 60 15.5 56 13.3 87 87 N 7 11 30.06 1018 10 16 N/A
8:55 am 08:55 Sunny 62 16.5 56 13.6 83 83 NNW 6 9 30.06 1018 10 16 N/A
9:15 am 09:15 Sunny 63 17 57 13.8 82 82 N 6 9 30.03 1017 10 16 N/A
9:35 am 09:35 Sunny 64 17.8 58 14.2 80 80 N 5 7 30.03 1017 10 16 N/A
9:55 am 09:55 Sunny 65 18.6 58 14.4 77 77 N 6 9 30.03 1017 10 16 N/A
10:15 am 10:15 Sunny 67 19.5 58 14.6 73 73 N 7 11 30.03 1017 10 16 N/A
10:35 am 10:35 Sunny 68 20 57 14 69 69 N 6 9 30.03 1017 10 16 N/A
10:55 am 10:55 Partly Cloudy 68 19.9 56 13.4 66 66 N 6 9 30.03 1017 10 16 N/A
11:15 am 11:15 Partly Cloudy 69 20.8 57 14 65 65 N 8 13 30.00 1016 10 16 N/A
11:35 am 11:35 Partly Cloudy 70 21.3 57 13.9 63 63 N 8 13 30.00 1016 10 16 N/A
11:55 am 11:55 Partly Cloudy 68 20.2 56 13.6 66 66 N 7 11 30.03 1017 10 16 N/A
12:15 pm 12:15 Sunny 70 21 56 13.1 61 61 NNE 7 11 30.00 1016 10 16 N/A
12:35 pm 12:35 Sunny 72 22.1 56 13.2 57 57 N N/A 30.00 1016 10 16 N/A
12:55 pm 12:55 Partly Cloudy 72 22.3 56 13.3 57 57 NNE 6 9 30.00 1016 10 16 N/A
1:15 pm 13:15 Partly Cloudy 73 22.7 54 12.2 52 52 N 3 6 30.00 1016 10 16 N/A
1:35 pm 13:35 Mostly Cloudy 73 22.6 55 12.6 53 53 ENE 6 9 29.97 1015 10 16 N/A
1:55 pm 13:55 Mostly Cloudy 74 23.2 55 12.6 51 51 ENE 7 11 29.97 1015 10 16 N/A
2:15 pm 14:15 Mostly Cloudy 73 22.6 54 12.1 52 52 N 3 6 29.97 1015 10 16 N/A
2:35 pm 14:35 Partly Cloudy 74 23.1 54 12.1 50 50 NE 7 11 29.97 1015 10 16 N/A
2:55 pm 14:55 Partly Cloudy 74 23.4 52 11.2 46 46 NE 3 6 29.97 1015 10 16 N/A
3:15 pm 15:15 Partly Cloudy 75 23.8 52 11.3 46 46 N 7 11 29.94 1014 10 16 N/A
3:35 pm 15:35 Partly Cloudy 75 23.7 52 11.2 45 45 N 6 9 29.91 1013 10 16 N/A
3:55 pm 15:55 Sunny 74 23.1 51 10.8 46 46 N N/A 29.94 1014 10 16 N/A
4:15 pm 16:15 Sunny 76 24.4 53 11.5 44 44 N 9 15 29.91 1013 10 16 N/A
4:35 pm 16:35 Partly Cloudy 76 24.6 52 11 43 43 NE 8 13 29.91 1013 10 16 N/A
4:55 pm 16:55 Sunny 76 24.5 51 10.5 41 41 ENE 8 13 29.91 1013 10 16 N/A
5:15 pm 17:15 Sunny 76 24.5 51 10.6 42 42 E 6 9 29.91 1013 10 16 N/A
5:35 pm 17:35 Partly Cloudy 76 24.3 51 10.6 42 42 ENE 8 13 29.88 1012 10 16 N/A
5:55 pm 17:55 Partly Cloudy 76 24.5 51 10.5 41 41 N N/A 29.88 1012 10 16 N/A
6:15 pm 18:15 Mostly Cloudy 76 24.5 51 10.6 42 42 N N/A 29.88 1012 10 16 N/A
6:35 pm 18:35 Partly Cloudy 76 24.5 52 11 43 43 NE 5 7 29.88 1012 10 16 N/A
6:55 pm 18:55 Sunny 76 24.4 52 11.1 43 43 NE 8 13 29.88 1012 10 16 N/A
7:15 pm 19:15 Sunny 74 23.6 55 12.5 50 50 NE 9 15 29.88 1012 10 16 N/A
7:35 pm 19:35 Sunny 73 22.9 54 12.4 52 52 ENE 7 11 29.91 1013 10 16 N/A
7:55 pm 19:55 Sunny 73 22.8 55 12.5 52 52 NE 7 11 29.91 1013 10 16 N/A
8:15 pm 20:15 Sunny 71 21.9 55 12.9 57 57 ENE 7 11 29.91 1013 10 16 N/A
8:35 pm 20:35 Sunny 69 20.8 55 12.6 60 60 ENE 7 11 29.91 1013 10 16 N/A
8:55 pm 20:55 Clear 67 19.5 56 13.1 67 67 E 8 13 29.91 1013 10 16 N/A
9:15 pm 21:15 Clear 67 19.6 56 13.5 68 68 E 9 15 29.91 1013 10 16 N/A
9:35 pm 21:35 Clear 67 19.5 56 13.1 67 67 E 10 17 29.91 1013 10 16 N/A
9:55 pm 21:55 Clear 64 17.8 56 13.1 74 74 E 8 13 29.94 1014 10 16 N/A
10:15 pm 22:15 Clear 62 16.6 55 12.6 77 77 E 8 13 29.97 1015 10 16 N/A
10:35 pm 22:35 Clear 62 16.4 54 12.3 77 77 ESE 6 9 29.97 1015 10 16 N/A
10:55 pm 22:55 Clear 61 16.3 55 12.5 78 78 ESE 3 6 29.97 1015 10 16 N/A
11:15 pm 23:15 Clear 60 15.6 54 12.1 80 80 ESE 5 7 30.00 1016 10 16 N/A
11:35 pm 23:35 Clear 59 15.1 53 11.7 80 80 E 5 7 30.00 1016 10 16 N/A
11:55 pm 23:55 Clear 59 15.2 53 11.6 79 79 ESE 5 7 30.00 1016 10 16 N/A

Powered by AerisWeather